Weather History for PAJN - September, 2012

Change the Weather History Date:

Saturday, September 22, 2012

  Actual Average Record
Temperature  
Mean Temperature 52 °F 49 °F  
Max Temperature 58 °F 54 °F 62 °F (1984)
Min Temperature 46 °F 44 °F 28 °F (1955)
Degree Days  
Heating Degree Days 13 16  
Month to date heating degree days 325 311  
Since 1 July heating degree days 948 846  
Cooling Degree Days 0 0  
Month to date cooling degree days 0 0  
Year to date cooling degree days 1 2  
Growing Degree Days 2 (Base 50)    
Moisture  
Dew Point 49 °F    
Average Humidity 86    
Maximum Humidity 100    
Minimum Humidity 72    
Precipitation  
Precipitation 0.19 in 0.31 in 2.16 in (1989)
Month to date precipitation 8.49 6.19  
Year to date precipitation 47.90 39.36  
Sea Level Pressure  
Sea Level Pressure 29.99 in    
Wind  
Wind Speed 12 mph (East)    
Max Wind Speed 23 mph    
Max Gust Speed 30 mph    
Visibility 9 miles    
Events Fog , Rain    
T = Trace of Precipitation, MM = Missing Value Source: NWS Daily Summary

Daily Weather History Graph

Daily Weather History Graph

Search for Another Location

Airport or City:

Trip Planner

Search our weather history database for the weather conditions in past years. The results will help you decide how hot, cold, wet, or windy it might be!

Date:

Astronomy

Sep. 22, 2012 Rise Set
Actual Time 6:44 AM AKDT 6:55 PM AKDT
Civil Twilight 6:04 AM AKDT 7:35 PM AKDT
Nautical Twilight 5:17 AM AKDT 8:22 PM AKDT
Astronomical Twilight 4:26 AM AKDT 9:13 PM AKDT
Moon 3:30 PM AKDT (9/22) 10:49 PM AKDT (9/22)
Length of Visible Light 13h 30m
Length of Day
12h 11m
Waxing Crescent, 50% of the Moon is Illuminated
Sep 22
Waxing Crescent
Sep 29
Full
Oct 7
Last Quarter
Oct 15
New
Oct 21
First Quarter

Hourly Weather History & Observations

Time (AKDT) Temp. Dew Point Humidity Pressure Visibility Wind Dir Wind Speed Gust Speed Precip Events Conditions
12:53 AM 48.9 °F 48.0 °F 97% 30.02 in 10.0 mi East 3.5 mph - N/A   Scattered Clouds
1:53 AM 48.9 °F 48.9 °F 100% 30.01 in 10.0 mi Calm Calm - N/A   Mostly Cloudy
2:26 AM 46.4 °F 46.4 °F 100% 30.01 in 10.0 mi Calm Calm - N/A Fog Patches of Fog
2:53 AM 46.0 °F 46.0 °F 100% 30.01 in 10.0 mi Calm Calm - N/A Fog Patches of Fog
3:05 AM 46.4 °F 46.4 °F 100% 30.01 in 10.0 mi Calm Calm - N/A Fog Patches of Fog
3:53 AM 48.0 °F 48.0 °F 100% 30.01 in 0.8 mi Calm Calm - N/A   Mostly Cloudy
4:53 AM 48.0 °F 48.0 °F 100% 30.01 in 0.2 mi East 6.9 mph - N/A Fog Fog
5:19 AM 48.2 °F 48.2 °F 100% 30.00 in 0.2 mi ENE 9.2 mph - N/A Fog Fog
5:53 AM 50.0 °F 48.9 °F 96% 30.00 in 8.0 mi ENE 10.4 mph - N/A   Mostly Cloudy
6:09 AM 50.0 °F 48.2 °F 94% 30.00 in 10.0 mi ENE 13.8 mph - N/A Fog Patches of Fog
6:53 AM 50.0 °F 50.0 °F 100% 30.01 in 10.0 mi ENE 15.0 mph - N/A Fog Patches of Fog
7:20 AM 51.8 °F 51.8 °F 100% 30.01 in 10.0 mi East 17.3 mph - N/A Fog Patches of Fog
7:34 AM 51.8 °F 51.8 °F 100% 30.00 in 10.0 mi East 16.1 mph - N/A   Mostly Cloudy
7:53 AM 52.0 °F 51.1 °F 97% 30.00 in 10.0 mi East 12.7 mph - N/A   Mostly Cloudy
8:07 AM 51.8 °F 51.8 °F 100% 30.01 in 10.0 mi East 12.7 mph - N/A   Mostly Cloudy
8:53 AM 53.1 °F 51.1 °F 93% 30.02 in 10.0 mi East 12.7 mph - N/A   Overcast
9:53 AM 53.1 °F 51.1 °F 93% 30.01 in 10.0 mi East 17.3 mph - N/A   Overcast
10:53 AM 54.0 °F 52.0 °F 93% 30.01 in 10.0 mi East 16.1 mph - N/A   Mostly Cloudy
11:53 AM 57.0 °F 52.0 °F 83% 30.01 in 10.0 mi ESE 18.4 mph - N/A   Mostly Cloudy
12:53 PM 55.9 °F 50.0 °F 80% 30.00 in 10.0 mi SE 17.3 mph 27.6 mph N/A   Mostly Cloudy
1:53 PM 57.0 °F 50.0 °F 77% 29.99 in 10.0 mi ESE 18.4 mph 26.5 mph N/A   Mostly Cloudy
2:53 PM 57.0 °F 48.9 °F 74% 29.98 in 10.0 mi ESE 13.8 mph 24.2 mph N/A   Mostly Cloudy
3:53 PM 57.0 °F 48.9 °F 74% 29.97 in 10.0 mi ESE 13.8 mph - N/A   Mostly Cloudy
4:53 PM 55.9 °F 48.9 °F 77% 29.96 in 10.0 mi ESE 9.2 mph - N/A   Mostly Cloudy
5:53 PM 55.0 °F 48.9 °F 80% 29.95 in 10.0 mi East 5.8 mph - N/A   Overcast
6:53 PM 55.0 °F 48.9 °F 80% 29.95 in 10.0 mi ESE 12.7 mph - 0.00 in   Light Drizzle
7:53 PM 54.0 °F 48.9 °F 83% 29.96 in 10.0 mi East 9.2 mph - 0.00 in   Overcast
8:53 PM 55.0 °F 48.9 °F 80% 29.96 in 10.0 mi ESE 9.2 mph - N/A   Overcast
9:53 PM 55.0 °F 48.9 °F 80% 29.99 in 10.0 mi SE 10.4 mph - N/A   Overcast
10:53 PM 53.1 °F 48.9 °F 86% 29.95 in 6.0 mi ESE 23.0 mph 27.6 mph 0.05 in Rain Rain
11:53 PM 52.0 °F 50.0 °F 93% 29.98 in 7.0 mi ESE 16.1 mph 24.2 mph 0.13 in Rain Light Rain